Probability
0 0 0 0 0 1 5 18 24 10 1 2 1 0 0 0 0 0 0 0 0 0 0 0 0 0 0 0 0 0 0 0 0 0 0 0 0 0 0 0 0 0 0
21 15 6 1 0 1 8 18 15 6 1 2 1 0 0 0 0 0 0 0 0 0 0 0 0 0 0 0 0 0 0 0 0 0 0 0 0 0 0 0 0 0 0
52 38 16 3 0 1 6 8 5 1 1 1 1 0 0 0 0 0 0 0 0 0 0 0 0 0 0 0 0 0 0 0 0 0 0 0 0 0 0 0 0 0 0
46 34 15 3 0 0 1 0 0 0 0 0 0 0 0 0 0 0 0 0 0 0 0 0 0 0 0 0 0 0 0 0 0 0 0 0 0 0 0 0 0 0 0
13 10 5 1 0 0 0 0 0 0 0 0 0 0 0 0 0 0 0 0 0 0 0 0 0 0 0 0 0 0 0 0 0 0 0 0 0 0 0 0 0 0 0
0 0 0 0 0 0 0 0 0 0 0 0 0 0 0 0 0 0 0 0 0 0 0 0 0 0 0 0 0 0 0 0 0 0 0 0 0 0 0 0 0 0 0
0 0 0 0 0 0 0 0 0 0 0 0 0 0 0 0 0 0 0 0 0 0 0 0 0 0 0 0 0 0 0 0 0 0 0 0 0 0 0 0 0 0 0
0 0 0 0 0 0 0 0 0 0 0 0 0 0 0 0 0 0 0 0 0 0 0 0 0 0 0 0 0 0 0 0 0 0 0 0 0 0 0 0 0 0 0
0 0 0 0 0 0 0 0 0 0 0 0 0 0 0 0 0 0 0 0 0 0 0 0 0 0 0 0 0 0 0 0 0 0 0 0 0 0 0 0 0 0 0
0 0 0 0 0 0 0 0 0 0 0 0 0 0 0 0 0 0 0 0 0 0 0 0 0 0 0 0 0 0 0 0 0 0 0 0 0 0 0 0 0 0 0
0 0 0 0 0 0 0 0 0 0 0 0 0 0 0 0 0 0 0 0 0 0 0 0 0 0 0 0 0 0 0 0 0 0 0 0 0 0 0 0 0 0 0
0 0 0 0 0 0 0 0 0 0 0 0 0 0 0 0 0 0 0 0 0 0 0 0 0 0 0 0 0 0 0 0 0 0 0 0 0 0 0 0 0 0 0
0 0 0 0 0 0 0 0 0 0 0 0 0 0 0 0 0 0 0 0 0 0 0 0 0 0 0 0 0 0 0 0 0 0 0 0 0 0 0 0 0 0 0
0 0 0 0 0 0 0 0 0 0 0 0 0 0 0 0 0 0 0 0 0 0 0 0 0 0 0 0 0 0 0 0 0 0 0 0 0 0 0 0 0 0 0
0 0 0 0 0 0 0 0 0 0 0 0 0 0 0 0 0 0 0 0 0 0 0 0 0 0 0 0 0 0 0 0 0 0 0 0 0 0 0 0 0 0 0
0 0 0 0 0 0 0 0 0 0 0 0 0 0 0 0 0 0 0 0 0 0 0 0 0 0 0 0 0 0 0 0 0 0 0 0 0 0 0 0 0 0 0
0 0 0 0 0 0 0 0 0 0 0 0 0 0 0 0 0 0 0 0 0 0 0 0 0 0 0 0 0 0 0 0 0 0 0 0 0 0 0 0 0 0 0
0 0 0 0 0 0 0 0 0 0 0 0 0 0 0 0 0 0 0 0 0 0 0 0 0 0 0 0 0 0 0 0 0 0 0 0 0 0 0 0 0 0 0
0 0 0 0 0 0 0 0 0 0 0 0 0 0 0 0 0 0 0 0 0 0 0 0 0 0 0 0 0 0 0 0 0 0 0 0 0 0 0 0 0 0 0
0 0 0 0 0 0 0 0 0 0 0 0 0 0 0 0 0 0 0 0 0 0 0 0 0 0 0 0 0 0 0 0 0 0 0 0 0 0 0 0 0 0 0
0 0 0 0 0 0 0 0 0 0 0 0 0 0 0 0 0 0 0 0 0 0 0 0 0 0 0 0 0 0 0 0 0 0 0 0 0 0 0 0 0 0 0
0 0 0 0 0 0 0 0 0 0 0 0 0 0 0 0 0 0 0 0 0 0 0 0 0 0 0 0 0 0 0 0 0 0 0 0 0 0 0 0 0 0 0
0 0 0 0 0 0 0 0 0 0 0 0 0 0 0 0 0 0 0 0 0 0 0 0 0 0 0 0 0 0 0 0 0 0 0 0 0 0 0 0 0 0 0
0 0 0 0 0 0 0 0 0 0 0 0 0 0 0 0 0 0 0 0 0 0 0 0 0 0 0 0 0 0 0 0 0 0 0 0 0 0 0 0 0 0 0
0 0 0 0 0 0 0 0 0 0 0 0 0 0 0 0 0 0 0 0 0 0 0 0 0 0 0 0 0 0 0 0 0 0 0 0 0 0 0 0 0 0 0
0 0 0 0 0 0 0 0 0 0 0 0 0 0 0 0 0 0 0 0 0 0 0 0 0 0 0 0 0 0 0 0 0 0 0 0 0 0 0 0 0 0 0
Wind_Speed
7 6 6 4 2 2 2 1 4 7 6 4 4 4 4 4 5 6 7 7 7 7 4 4 5 5 4 4 5 3 4 4 5 4 5 4 3 4 4 5 6 6 7
8 6 4 3 3 4 5 7 7 8 7 4 3 4 4 4 5 4 6 8 8 8 7 6 4 4 4 5 5 3 2 3 5 4 5 5 7 5 6 7 7 8 7
12 10 10 8 8 6 7 9 11 11 10 8 6 7 7 6 5 5 4 5 6 6 5 4 3 3 3 3 4 5 6 4 3 3 1 3 7 8 4 4 5 7 6
10 10 11 10 10 9 9 11 11 9 8 9 9 8 4 3 2 2 2 3 4 5 6 7 7 6 6 7 6 6 4 4 4 3 2 3 5 5 7 3 4 5 6
9 10 10 8 9 10 10 10 10 9 7 7 6 5 4 2 2 3 5 6 6 7 8 7 7 7 6 6 6 6 5 4 4 2 2 3 4 4 7 8 5 5 6
9 10 10 9 8 9 9 8 10 8 7 6 6 6 6 5 5 4 4 4 4 4 6 6 5 4 3 3 3 2 2 3 3 2 2 2 3 4 5 6 8 8 7
10 10 8 7 8 8 7 7 10 8 7 7 8 8 7 7 6 4 4 4 4 4 6 7 6 5 4 4 4 3 3 4 4 5 3 3 5 5 6 7 7 7 5
9 9 7 6 8 9 7 7 8 7 7 8 8 7 7 5 5 5 4 4 3 3 4 5 5 5 5 4 4 3 4 5 5 5 5 5 7 6 7 7 8 9 7
12 11 9 7 9 10 7 7 8 8 8 7 7 7 6 6 5 4 3 2 2 3 4 5 5 5 5 5 4 4 4 5 5 6 7 6 6 6 7 6 6 7 7
13 11 8 8 10 9 6 7 8 7 6 6 6 5 5 4 4 4 4 4 3 3 4 5 5 5 5 6 5 4 5 5 6 6 8 8 7 6 6 6 6 7 6
12 10 10 10 11 8 7 6 6 6 7 6 4 4 4 3 2 2 4 5 5 4 3 3 3 3 3 2 3 4 5 6 8 10 9 10 10 8 7 6 7 6 6
10 11 10 9 8 7 6 7 6 6 6 5 4 3 3 3 3 4 5 4 5 5 3 3 4 1 2 3 3 5 6 7 10 11 11 12 10 9 8 6 8 7 7
13 10 6 6 7 7 6 7 6 5 4 4 3 3 3 3 4 4 3 2 3 4 4 4 5 4 6 5 4 5 7 8 10 10 11 12 11 10 8 8 7 7 7
14 13 6 4 6 7 6 6 5 4 3 2 2 3 4 3 4 3 4 4 4 5 6 5 6 7 6 5 4 5 7 8 10 11 10 11 10 11 9 6 7 8 7
10 13 10 5 7 7 5 5 4 3 3 3 4 4 5 4 4 4 5 5 3 4 6 6 7 8 5 5 5 5 7 8 9 10 11 10 13 17 11 10 8 8 8
5 9 9 7 7 5 4 4 3 3 3 4 4 4 4 4 4 6 6 5 4 5 6 7 7 8 6 6 5 8 7 8 9 10 10 10 14 12 15 17 17 17 15
6 7 8 8 6 4 3 1 2 4 3 2 3 3 4 5 7 7 7 6 5 5 7 8 8 8 5 6 10 14 8 8 9 10 9 8 10 10 9 15 19 19 23
8 6 6 7 5 3 2 1 3 5 4 3 5 6 6 7 9 7 7 7 5 6 6 6 7 5 5 7 10 15 9 9 10 11 9 9 9 9 12 12 12 13 15
9 7 7 6 5 3 1 2 5 5 5 5 7 7 7 9 9 9 8 6 5 3 4 5 5 3 2 7 13 13 8 8 11 11 10 9 8 14 16 11 12 13 13
9 9 7 5 4 2 2 3 5 5 5 6 7 7 7 7 8 8 6 4 3 3 4 6 6 4 3 7 12 14 8 8 9 10 10 11 12 15 16 10 10 12 11
10 9 6 5 3 4 3 3 3 3 5 6 6 7 7 6 5 6 5 7 6 6 7 5 5 5 5 8 13 17 11 9 9 8 9 9 14 16 13 11 9 9 5
9 7 5 4 5 4 3 2 2 4 5 5 6 8 7 8 8 10 9 8 7 6 5 4 5 5 6 9 14 17 16 15 10 9 8 9 14 14 10 10 12 7 3
6 5 5 4 4 3 2 1 3 4 5 6 7 6 9 9 7 7 6 5 5 4 4 4 5 7 7 7 13 15 16 17 12 10 13 13 13 10 7 12 13 6 3
5 4 4 3 0 1 3 2 2 4 6 6 6 6 9 7 5 4 4 4 4 4 5 5 5 6 7 7 8 8 9 12 11 10 11 12 9 7 8 9 8 4 4
3 4 4 3 1 1 2 2 2 5 6 5 6 7 6 5 3 3 3 2 1 2 4 6 5 5 7 10 13 11 10 9 11 10 6 6 7 6 6 6 6 5 5
3 3 2 2 3 1 2 3 3 6 6 6 7 5 4 2 3 3 3 5 6 8 8 9 7 5 8 14 16 17 18 16 15 7 6 6 6 6 6 6 6 6 6
Wind_Direction
131 133 131 141 106 26 344 39 89 95 99 83 86 88 60 38 48 38 28 25 20 16 22 18 6 5 8 5 16 357 342 357 3 358 331 309 309 337 346 342 329 321 322
132 143 144 121 103 79 64 65 69 60 52 60 66 79 79 58 48 40 31 24 23 18 24 26 16 13 21 27 19 12 5 16 32 24 333 332 314 341 349 330 328 327 331
131 130 133 131 119 104 87 81 71 62 54 52 59 55 47 37 31 21 22 16 29 33 34 24 13 18 42 44 36 29 34 10 14 32 323 318 302 316 309 306 315 318 317
108 110 116 119 117 112 101 91 82 73 65 63 70 73 73 62 24 1 10 3 10 10 14 17 20 21 27 35 34 35 25 8 347 349 354 287 273 282 289 254 303 293 315
116 112 111 111 110 109 101 94 90 83 79 81 87 89 81 67 18 7 9 0 4 24 34 35 33 29 30 30 28 20 8 344 326 337 283 275 274 266 287 302 300 290 291
110 106 104 95 84 86 92 95 92 82 74 74 72 72 70 50 43 28 24 12 11 18 20 25 25 15 12 5 360 1 358 323 308 301 287 267 277 292 301 303 299 292 285
125 118 114 107 102 89 82 82 82 72 67 65 59 62 65 63 57 39 36 27 11 0 359 3 359 353 351 350 346 347 338 315 322 318 308 286 270 272 279 284 292 292 300
130 125 130 130 109 93 85 81 81 72 60 66 71 68 60 52 41 33 33 29 8 340 340 344 345 340 336 339 344 339 331 331 317 309 305 307 303 297 283 288 297 303 298
135 136 139 129 105 93 87 84 75 65 64 75 73 63 54 50 43 33 36 29 359 330 343 342 338 332 335 346 349 343 340 343 327 316 308 301 285 280 283 287 280 280 287
146 149 138 115 102 99 93 75 72 73 68 73 75 72 60 52 41 26 5 346 329 329 336 333 336 331 339 351 356 332 329 329 309 302 294 288 279 273 272 269 270 266 272
151 134 121 117 107 105 92 81 75 68 62 72 63 54 47 42 24 345 336 332 327 324 306 305 318 324 337 359 338 317 312 310 305 305 297 289 285 280 279 273 273 264 259
126 117 120 114 107 101 89 77 79 78 80 84 60 30 11 354 339 331 335 346 339 323 301 308 302 244 226 251 274 298 308 308 304 303 294 283 280 278 278 273 270 261 258
104 95 91 100 101 96 86 77 78 76 84 74 50 358 341 348 338 339 330 323 317 318 337 335 298 240 242 253 268 304 306 305 301 297 290 287 281 276 271 263 265 266 266
129 125 120 117 98 86 79 80 58 60 62 43 17 325 315 327 317 324 296 290 311 328 335 320 287 261 257 263 275 294 298 299 301 301 292 285 279 278 278 279 280 283 283
139 125 128 127 91 82 77 69 56 33 16 356 337 315 295 303 311 297 277 280 316 319 306 301 292 278 271 243 250 299 297 295 297 301 302 299 305 309 315 309 300 298 294
122 114 119 110 98 94 79 52 10 354 345 323 311 314 314 317 297 273 268 287 309 298 299 294 288 292 285 258 332 335 310 300 302 300 298 302 311 305 314 314 311 303 293
132 123 119 118 114 117 113 110 333 321 299 270 278 297 304 306 281 268 277 278 272 266 274 284 299 305 320 22 0 337 327 310 300 293 292 304 306 315 314 317 310 297 287
133 117 116 116 136 147 138 354 300 268 230 239 265 271 269 264 264 271 276 265 252 252 273 306 336 10 43 21 347 340 328 304 295 293 293 294 299 317 322 313 300 294 292
129 128 138 142 153 142 148 269 267 246 251 268 274 272 262 259 265 268 269 270 260 289 341 10 24 31 348 356 348 333 310 304 302 301 299 304 318 320 320 315 309 306 303
117 127 136 126 117 196 237 263 257 246 264 281 287 289 281 271 270 277 296 286 46 52 42 35 13 341 315 323 333 332 319 311 308 308 309 313 317 318 321 318 312 307 311
116 120 122 133 185 233 235 251 263 268 279 305 319 324 332 340 4 21 20 51 58 51 38 13 339 331 328 323 330 329 326 319 314 310 311 310 314 319 320 322 308 298 303
116 130 143 184 223 231 214 237 274 288 317 337 349 352 18 52 63 67 54 51 47 41 15 350 338 325 317 326 327 326 326 323 317 310 308 313 319 323 334 330 324 334 40
150 165 174 202 232 233 198 241 292 321 356 9 12 27 61 60 60 64 56 48 42 32 4 348 336 326 323 325 329 331 330 326 326 319 324 331 330 339 352 338 340 4 54
139 145 149 154 127 121 165 209 340 25 36 25 31 59 76 73 55 50 56 56 41 19 354 344 335 332 339 338 336 334 329 331 332 330 331 335 337 352 10 354 347 18 70
116 122 109 90 28 291 284 336 37 53 46 46 58 69 85 83 73 55 37 37 5 49 17 359 338 333 346 341 338 340 341 340 340 335 336 347 351 6 21 7 4 23 54
110 90 86 51 12 8 23 37 77 78 77 65 65 80 93 77 49 38 359 340 339 345 30 14 8 348 344 343 345 350 345 342 340 343 352 352 352 14 27 19 21 32 48